[Iaude] MPEC J02: 2024 HG2 [a=1.30,e=0.16,i=12.9,H=24.9]

mpec at cfa.harvard.edu mpec at cfa.harvard.edu
Tue Apr 30 21:14:02 EDT 2024


M.P.E.C. 2024-J02                                   Issued 2024 May 1, 01:12 UT

     The Minor Planet Electronic Circulars contain information on unusual
         minor planets, routine data on comets and natural satellites,
         and occasional editorial announcements.  They are published
    on behalf of Division F of the International Astronomical Union by the
          Minor Planet Center, Smithsonian Astrophysical Observatory,
                          Cambridge, MA 02138, U.S.A.
			  
             Prepared using the Tamkin Foundation Computer Network

                              MPC at CFA.HARVARD.EDU
            URL https://www.minorplanetcenter.net/    ISSN 1523-6714

                                    2024 HG2                                    


Observations:
     K24H02G*1C2024 04 29.29954814 23 51.922-13 40 34.32         19.56GVEJ002G96
     K24H02G 1C2024 04 29.30467914 23 53.048-13 39 46.62         19.41GVEJ002G96
     K24H02G 1C2024 04 29.30982514 23 54.157-13 38 59.21         19.49GVEJ002G96
     K24H02G 1C2024 04 29.31497214 23 55.284-13 38 11.83         19.63GVEJ002G96
     K24H02G KB2024 04 29.34936 14 24 01.603-13 32 58.96         20.0 RZEJ002H36
     K24H02G KB2024 04 29.35884 14 24 03.758-13 31 30.83         19.5 RZEJ002H36
     K24H02G KC2024 04 29.36128014 24 05.476-13 31 03.04         19.75GVEJ002I52
     K24H02G KC2024 04 29.36206814 24 05.652-13 30 55.58         19.57GVEJ002I52
     K24H02G KC2024 04 29.36285514 24 05.825-13 30 48.24         19.80GVEJ002I52
     K24H02G KC2024 04 29.36364914 24 05.987-13 30 40.75         19.61GVEJ002I52
     K24H02G KC2024 04 29.94365 14 26 36.97 -12 02 01.1                VEJ002104
     K24H02G KC2024 04 29.94945 14 26 38.18 -12 01 06.7          19.0 GVEJ002104
     K24H02G KC2024 04 29.95525 14 26 39.53 -12 00 14.2          19.1 GVEJ002104
     K24H02G KB2024 04 30.02734814 26 56.49 -11 49 11.9          19.8 GXEJ002958
     K24H02G KB2024 04 30.03299514 26 57.65 -11 48 20.8          19.4 GXEJ002958
     K24H02G KB2024 04 30.03865714 26 58.96 -11 47 29.2          19.5 GXEJ002958
     K24H02G mC2024 04 30.35363114 28 17.144-10 59 16.26               VEJ002I52
     K24H02G mC2024 04 30.37524214 28 21.853-10 55 58.76         20.35GVEJ002I52
     K24H02G mC2024 04 30.37550514 28 21.893-10 55 56.28         20.64GVEJ002I52
     K24H02G mC2024 04 30.38123614 28 23.124-10 55 03.29         19.23GVEJ002I52
     K24H02G KB2024 04 30.89149 14 30 32.97 -09 38 10.9          19.6 GXEJ002M45
     K24H02G KB2024 04 30.89522 14 30 33.78 -09 37 36.9                XEJ002M45

Observer details:
104 San Marcello Pistoiese.  Observers P. Bacci, M. Maestripieri.  Measurer P.
    Bacci.  0.60-m f/4.0 reflector + CCD.
958 Observatoire de Dax.  Observer P. Dupouy.  0.50-m f/4.5 Reflector + CMO.
G96 Mt. Lemmon Survey.  Observer J. B. Fazekas.  Measurers T. Beuden, V. F.
    Carvajal, D. Fay, J. B. Fazekas, D. C. Fuls, A. R. Gibbs, A. D. Grauer, H.
    Groeller, J. K. Hogan, R. A. Kowalski, S. M. Larson, G. J. Leonard, D.
    Rankin, R. L. Seaman, F. C. Shelly, K. W. Wierzchos.  1.5-m reflector +
    10K CCD.
H36 Sandlot Observatory, Scranton.  Observer G. Hug.  0.56-m f/4.8 reflector +
    CMO.
I52 Steward Observatory, Mt. Lemmon Station.  Observers R. A. Kowalski, V. F.
    Carvajal, G. J. Leonard.  Measurers T. Beuden, V. F. Carvajal, D. Fay, J.
    B. Fazekas, D. C. Fuls, A. R. Gibbs, A. D. Grauer, H. Groeller, J. K.
    Hogan, R. A. Kowalski, S. M. Larson, G. J. Leonard, D. Rankin, R. L.
    Seaman, F. C. Shelly, K. W. Wierzchos.  1.0-m prime focus + CCD.
M45 Starhopper Observatory, Sfantu Gheorghe.  Observer F. Ursache.  0.41-m
    f/7.5 reflector + CMO.

Orbital elements:
2024 HG2                                                 Earth MOID = 0.0815 AU
Epoch 2024 Mar. 31.0 TT = JDT 2460400.5                 Veres                   
M 350.42051              (2000.0)            P               Q                  
n   0.66627095     Peri.  346.19433     -0.90219525     +0.40801727             
a   1.2982813      Node   218.85223     -0.37154750     -0.89986993             
e   0.1646307      Incl.   12.88401     -0.21908030     -0.15412987             
P   1.48           H   24.90          G   0.15           U   8                  
Residuals in seconds of arc
240429 G96  0.0   0.2-    240429 I52  0.1+  0.2+    240430 I52 (1.3-  0.2+)
240429 G96  0.1+  0.1+    240429 I52  0.1-  0.3+    240430 I52  0.1+  0.2-
240429 G96  0.2-  0.0     240429 104  0.3+  0.8-    240430 I52  0.1-  0.1-
240429 G96  0.2-  0.2-    240429 104  0.7-  0.5+    240430 I52  0.1-  0.4+
240429 H36  0.1+  0.1+    240429 104  0.4+  0.1-    240430 M45  0.6-  0.6-
240429 H36  0.1+  0.2+    240430 958  1.3+  0.8+    240430 M45  0.4-  0.2-
240429 I52  0.1+  0.0     240430 958  0.2+  0.1+
240429 I52  0.1+  0.1+    240430 958  1.1+  0.3-

Ephemeris:
2024 HG2                 a,e,i = 1.30, 0.16, 13                  q = 1.0845
Date    TT    R. A. (2000) Decl.     Delta      r    Elong.  Phase     V
2024 04 01    11 59 55.9 -57 18 03   0.1396  1.0882   126.6    47.5    22.6
...
2024 04 16    13 16 43.6 -43 29 52   0.09586 1.0846   146.3    30.9    21.3
...
2024 04 24    13 59 13.6 -27 05 27   0.08316 1.0864   165.6    13.3    20.5
...
2024 04 30    14 26 50.2 -11 52 03   0.08235 1.0895   177.0     2.7    20.0
2024 05 01    14 30 58.3 -09 20 32   0.08303 1.0902   174.3     5.3    20.1
2024 05 02    14 34 58.0 -06 51 54   0.08394 1.0909   171.5     7.9    20.3
...
2024 05 08    14 56 07.1 +06 19 16   0.09365 1.0959   156.6    21.5    21.0
...
2024 05 16    15 17 49.5 +18 18 55   0.1152  1.1046   142.4    33.9    21.8
...
2024 05 31    15 45 13.8 +28 03 51   0.1681  1.1268   128.8    44.6    23.0

M. P. C. Staff               (C) Copyright 2024 MPC           M.P.E.C. 2024-J02





More information about the Iaude mailing list